FW2567 Weather Reports


time (UTC)temp
F
wind
direction
speed
knots
gust
knots
rain 1hr
in
rain 24hr
in
rain mn
in
humidity
%
barometer
mb
20260906231531 59 112 0.0 1.7 0.00 2.84 2.80 90 1019.2
20260906230030 59 126 0.0 2.6 0.00 2.84 2.80 90 1019.2
20260906224531 58 138 1.7 3.5 0.00 2.84 2.80 91 1019.2
20260906221606 57 148 1.7 3.5 0.00 2.84 2.80 93 1019.2
20260906214530 56 155 2.6 5.2 0.00 2.84 2.80 94 1019.2
20260906211532 55 152 1.7 4.3 0.00 2.84 2.80 95 1019.2
20260906210030 55 154 1.7 3.5 0.00 2.84 2.80 96 1019.2
20260906204530 55 152 1.7 4.3 0.00 2.84 2.80 96 1019.1
20260906201532 53 129 1.7 3.5 0.01 2.84 2.80 96 1019.1
20260906200031 53 144 1.7 3.5 0.01 2.84 2.80 96 1019.1
20260906194529 53 112 0.0 2.6 0.01 2.84 2.79 96 1019.0
20260906191530 53 125 0.9 2.6 0.00 2.83 2.79 96 1019.1
20260906190107 53 67 0.0 1.7 0.00 2.83 2.79 97 1019.1
20260906184531 53 46 0.9 3.5 0.00 2.83 2.79 97 1019.0
20260906183031 52 61 1.7 4.3 0.00 2.83 2.79 97 1019.0
20260906181530 52 64 1.7 4.3 0.01 2.83 2.79 97 1019.0
20260906180103 53 25 2.6 5.2 0.01 2.83 2.79 97 1018.9
20260906173105 53 313 0.9 3.5 0.02 2.83 2.78 97 1018.8
20260906171530 53 276 1.7 3.5 0.01 2.82 2.78 97 1018.8
20260906170031 52 286 0.9 2.6 0.01 2.82 2.78 97 1018.7
20260906164537 52 282 1.7 3.5 0.01 2.82 2.77 97 1018.7
20260906154528 51 210 0.0 1.7 0.01 2.81 2.77 97 1018.6
20260906151609 51 157 0.0 0.0 0.02 2.80 2.76 97 1018.2
20260906150030 51 157 0.0 0.0 0.03 2.80 2.76 97 1018.1
20260906143028 51 157 0.0 0.0 0.05 2.79 2.74 96 1017.8
20260906141529 51 157 0.0 0.0 0.06 2.78 2.73 96 1017.6
20260906140033 51 157 0.0 0.0 0.05 2.77 2.72 96 1017.5
20260906134531 51 157 0.0 1.7 0.05 2.76 2.70 96 1017.5
20260906133107 50 252 0.0 1.7 0.03 2.74 2.68 96 1017.3
20260906130108 51 270 0.0 0.0 0.02 2.72 2.67 96 1017.3
20260906124531 50 270 0.0 0.9 0.01 2.71 2.67 96 1017.3
20260906123032 50 270 0.0 0.0 0.01 2.71 2.66 96 1017.5
20260906121529 50 270 0.0 0.9 0.00 2.70 2.66 96 1017.5
20260906120032 50 270 0.0 0.0 0.01 2.70 2.66 96 1017.5
20260906111606 50 270 0.0 0.0 0.01 2.70 2.65 96 1017.7
20260906110033 50 270 0.0 0.0 2.57 2.69 2.65 96 1017.7
20260906104530 50 270 0.0 0.9 2.58 2.69 2.65 96 1017.9
20260906101644 51 270 0.0 0.0 2.61 2.69 0.08 96 1018.3
20260906094531 51 270 0.0 1.7 0.06 0.11 0.05 96 1018.3
20260906093029 50 270 0.0 0.9 0.05 0.09 0.04 96 1018.3
20260906091529 50 112 0.0 1.7 0.04 0.08 0.03 96 1018.2
20260906090146 50 142 0.0 1.7 0.03 0.07 0.01 95 1018.3
20260906084606 50 247 0.0 0.0 0.01 0.05 0.00 95 1018.4
20260906083030 50 247 0.0 0.0 0.00 0.04 0.00 95 1018.3
20260906081530 50 231 0.0 1.7 0.00 0.04 0.00 95 1018.2
20260906080032 50 135 0.0 1.7 0.00 0.04 0.00 95 1018.1
20260906074529 50 154 0.0 2.6 0.00 0.04 0.00 95 1018.1
20260906073030 49 180 0.0 0.0 0.00 0.04 0.00 95 1018.1
20260906071531 49 180 0.0 0.9 0.00 0.04 0.00 95 1018.2
20260906070106 49 180 0.0 1.7 0.00 0.04 0.00 95 1018.3
20260906063029 48 202 0.0 0.9 0.00 0.04 0.04 94 1018.5
20260906061529 48 202 0.0 1.7 0.00 0.04 0.04 94 1018.6
20260906060030 48 163 0.0 1.7 0.00 0.05 0.04 94 1018.7
20260906053032 49 157 0.0 0.0 0.00 0.06 0.04 94 1018.7
20260906051530 50 157 0.0 0.0 0.00 0.06 0.04 94 1018.8
20260906044533 50 157 0.0 1.7 0.00 0.06 0.04 93 1018.9
20260906043030 50 156 1.7 4.3 0.00 0.06 0.04 93 1019.1
20260906041526 51 157 0.9 3.5 0.00 0.06 0.04 93 1019.0
20260906040029 50 156 1.7 4.3 0.00 0.06 0.04 92 1019.0
20260906034531 51 245 0.0 1.7 0.00 0.06 0.04 92 1018.8
20260906033028 51 203 0.0 0.9 0.00 0.06 0.04 91 1018.6
20260906031528 52 202 0.9 2.6 0.00 0.06 0.04 90 1018.5
20260906030029 53 158 0.0 1.7 0.00 0.06 0.04 89 1018.5
20260906023030 55 159 2.6 3.5 0.00 0.06 0.04 87 1018.4
20260906021528 57 157 0.0 2.6 0.00 0.06 0.04 85 1018.3
20260906014529 58 157 0.0 0.9 0.00 0.06 0.04 82 1018.3
20260906013030 59 165 0.0 1.7 0.00 0.06 0.04 82 1018.3
20260906011531 60 202 0.0 0.9 0.00 0.06 0.04 81 1018.5
20260906010106 61 202 0.9 2.6 0.00 0.06 0.04 80 1018.7
20260906003031 64 246 1.7 3.5 0.03 0.06 0.04 79 1018.8
20260906001530 63 160 0.0 3.5 0.04 0.06 0.04 82 1018.9
20260905234529 59 83 2.6 6.1 0.04 0.06 0.01 84 1018.9
20260905233029 60 172 1.7 3.5 0.01 0.03 0.00 82 1019.1